EW1898 Weather Reports


time (UTC)temp
F
wind
direction
speed
knots
gust
knots
rain 1hr
in
rain 24hr
in
rain mn
in
humidity
%
barometer
mb
20260503184504 51 340 3.5 9.6 0.00 0.07 0.02 48 1006.0
20260503183106 51 317 7.0 12.2 0.00 0.07 0.02 48 1005.9
20260503181607 50 338 3.5 9.6 0.00 0.07 0.02 50 1006.2
20260503180055 50 280 2.6 10.4 0.00 0.07 0.02 53 1006.1
20260503174604 50 298 4.3 13.9 0.00 0.07 0.02 53 1006.1
20260503173052 49 343 4.3 10.4 0.00 0.07 0.02 55 1006.1
20260503171550 49 330 3.5 10.4 0.00 0.07 0.02 59 1006.0
20260503081547 41 288 0.9 3.5 0.00 0.16 0.00 93 1008.0
20260503071541 42 291 0.0 2.6 0.00 0.16 0.00 95 1008.4
20260503054536 42 270 0.0 1.7 0.00 0.16 0.00 95 1009.4
20260503053027 43 285 0.0 2.6 0.00 0.16 0.00 95 1009.6
20260503051525 43 292 0.0 3.5 0.00 0.16 0.00 95 1009.7
20260503050027 43 315 0.9 4.3 0.00 0.16 0.00 95 1009.9
20260503044521 43 285 0.0 1.7 0.00 0.16 0.00 95 1010.0
20260503043019 44 298 0.0 1.7 0.00 0.16 0.00 95 1010.1
20260503041517 44 299 1.7 4.3 0.00 0.16 0.00 96 1010.4
20260503040025 44 303 0.9 5.2 0.00 0.16 0.00 97 1010.3
20260503034513 44 293 0.0 0.9 0.00 0.16 0.16 97 1010.4
20260503033012 45 293 0.0 2.6 0.00 0.16 0.16 97 1010.6
20260503031512 44 265 0.0 0.9 0.00 0.16 0.16 97 1010.6
20260503030010 44 265 0.0 0.0 0.00 0.16 0.16 96 1010.4
20260503024511 45 265 0.0 0.0 0.00 0.16 0.16 96 1010.4
20260503023011 45 265 0.0 0.0 0.00 0.16 0.16 96 1010.4
20260503021515 45 265 0.0 0.0 0.00 0.16 0.16 96 1010.7
20260503020010 46 265 0.0 0.0 0.00 0.16 0.16 96 1010.6
20260503014509 46 265 0.0 0.0 0.00 0.16 0.16 95 1010.7
20260503013008 46 265 0.0 0.0 0.00 0.16 0.16 95 1010.7
20260503011522 46 265 0.0 0.0 0.00 0.16 0.16 95 1010.7
20260503010009 47 265 0.0 0.0 0.00 0.16 0.16 94 1010.5
20260503004507 47 265 0.0 0.0 0.00 0.16 0.16 94 1010.6
20260503003007 47 282 0.0 0.9 0.00 0.16 0.16 95 1010.5
20260503001506 48 282 0.0 1.7 0.00 0.16 0.16 96 1010.5
20260503000009 48 286 0.0 1.7 0.00 0.16 0.16 96 1010.4
20260502234516 48 297 0.0 0.0 0.00 0.16 0.16 95 1010.4
20260502233005 49 298 0.0 0.0 0.00 0.16 0.16 95 1010.3
20260502231504 49 297 0.0 0.0 0.00 0.16 0.16 95 1010.0
20260502230003 49 298 0.0 0.0 0.00 0.16 0.16 95 1010.0
20260502224502 49 298 0.0 0.9 0.00 0.16 0.16 95 1009.8
20260502223005 48 298 0.0 0.0 0.01 0.16 0.16 95 1009.6
20260502221501 48 298 0.0 0.0 0.02 0.16 0.16 94 1009.7
20260502220144 48 298 0.0 0.0 0.05 0.16 0.16 94 1009.8
20260502214603 48 298 0.0 0.0 0.05 0.16 0.16 93 1009.9
20260502213106 48 297 0.0 0.9 0.04 0.15 0.15 92 1010.0
20260502211559 49 297 0.0 2.6 0.03 0.14 0.14 89 1010.1
20260502210106 50 298 0.0 0.9 0.00 0.11 0.11 84 1009.9
20260502204609 50 299 0.9 3.5 0.00 0.11 0.11 82 1009.7
20260502203111 51 295 0.0 1.7 0.00 0.11 0.11 81 1009.7
20260502201557 51 290 0.0 1.7 0.00 0.11 0.11 82 1009.7
20260502200055 51 297 0.0 3.5 0.00 0.11 0.11 78 1010.0
20260502194557 52 301 1.7 6.1 0.00 0.11 0.11 77 1009.8
20260502193054 55 302 3.5 8.7 0.00 0.11 0.11 67 1009.8
20260502191608 56 284 0.0 2.6 0.00 0.11 0.11 62 1009.8
20260502190104 57 47 0.0 2.6 0.00 0.11 0.11 62 1009.8